Location: ????????
(41.2031°N, 22.5756°E)
Time: 05:07:28
(UTC+00:00)

Radarsat Rocket - Pass Details

Date: 01 December 2020
Orbit: 933 x 1491 km, 100.6° (Epoch: 20 January)

Event Time Altitude Azimuth Distance (km) Brightness Sun altitude
Rises 15:28:22 0° 156° (SSE) 3,630 7.0 -5.3°
Reaches altitude 10° 15:30:42 10° 155° (SSE) 2,724 6.4 -5.7°
Maximum altitude 15:36:45 75° 70° (ENE) 1,085 4.1 -6.8°
Drops below altitude 10° 15:43:34 10° 347° (NNW) 3,054 6.5 -8.0°
Sets 15:46:19 0° 346° (NNW) 4,100 7.2 -8.5°
